Location: Csohesd
(46.2500°N, 22.6167°E)
Time: 13:23:31
(UTC+00:00)

Cosmos 1932 - Pass Details

Date: 21 October 2021
Orbit: 942 x 987 km, 65.0° (Epoch: 06 December)

Event Time Altitude Azimuth Distance (km) Brightness Sun altitude
Rises 18:20:14 0° 322° (NW) 3,618 8.2 -29.5°
Reaches altitude 10° 18:22:47 10° 321° (NW) 2,673 7.4 -29.9°
Enters shadow 18:28:53 75° 249° (WSW) 985 4.5 -30.9°
